This is the latest recevied weather packets stored in our database for station/object KI6SYE. If no packets are shown the sender has not sent any weather packets the latest 1 day(s).
| Time | Temp. | Humidity | Pressure | Rain* | Wind** | Luminosity | Snow |
|---|---|---|---|---|---|---|---|
| 1778115436 | 17.78° C | 82% | 1015.9 hPa | 0 mm | - | 52 W/m² | - |
| 1778115131 | 17.22° C | 83% | 1015.8 hPa | 0 mm | - | 55 W/m² | - |
| 1778114828 | 17.78° C | 81% | 1015.7 hPa | 0 mm | - | 107 W/m² | - |
| 1778114526 | 17.78° C | 81% | 1015.9 hPa | 0 mm | - | 183 W/m² | - |
| 1778114222 | 17.78° C | 80% | 1015.9 hPa | 0 mm | - | 204 W/m² | - |
| 1778113917 | 17.78° C | 80% | 1016 hPa | 0 mm | - | 218 W/m² | - |
| 1778113614 | 18.33° C | 79% | 1015.8 hPa | 0 mm | - | 231 W/m² | - |
| 1778113007 | 18.33° C | 81% | 1016.1 hPa | 0 mm | - | 260 W/m² | - |
| 1778110585 | 18.89° C | 78% | 1016 hPa | 0 mm | - | 372 W/m² | - |
| 1778107553 | 18.89° C | 77% | 1016.2 hPa | 0 mm | - | 515 W/m² | - |
| 1778106945 | 18.89° C | 75% | 1016.4 hPa | 0 mm | - | 541 W/m² | - |
| 1778106642 | 18.89° C | 77% | 1016.3 hPa | 0 mm | - | 557 W/m² | - |
| 1778106035 | 18.33° C | 76% | 1016.4 hPa | 0 mm | - | 580 W/m² | - |
| 1778105126 | 18.33° C | 79% | 1016.7 hPa | 0 mm | - | 616 W/m² | - |
| 1778104822 | 18.89° C | 76% | 1016.8 hPa | 0 mm | - | 629 W/m² | - |
| 1778103912 | 18.33° C | 78% | 1016.9 hPa | 0 mm | - | 661 W/m² | - |
| 1778102700 | 18.89° C | 77% | 1016.9 hPa | 0 mm | - | 699 W/m² | - |
| 1778101783 | 18.89° C | 77% | 1017.3 hPa | 0 mm | - | 726 W/m² | - |
| 1778101177 | 18.33° C | 78% | 1017.4 hPa | 0 mm | - | 739 W/m² | - |
| 1778100873 | 18.33° C | 79% | 1017.3 hPa | 0 mm | - | 745 W/m² | - |
| 1778100267 | 18.89° C | 76% | 1017.5 hPa | 0 mm | - | 756 W/m² | - |
| 1778099964 | 18.33° C | 80% | 1017.6 hPa | 0 mm | - | 762 W/m² | - |
| 1778099661 | 18.33° C | 79% | 1017.6 hPa | 0 mm | - | 764 W/m² | - |
| 1778097236 | 18.33° C | 77% | 1017.6 hPa | 0 mm | - | 790 W/m² | - |
| 1778094507 | 18.33° C | 76% | 1018.2 hPa | 0 mm | - | 790 W/m² | - |
* Rain latest hour (hover to see other rain measurements)
** Current wind speed in m/s (hover to see current wind gust speed)